Location: Newark
(11.6000°N, 43.1667°E)
Time: 13:56:16
(UTC+00:00)

Envisat - Visible Passes

Search period start: 22 September 2019 00:00
Search period end: 02 October 2019 00:00
Orbit: 764 x 766 km, 98.1° (Epoch: 22 September)

Date Brightness Start Highest point End Pass type
(mag) Time Alt. Az. Time Alt. Az. Time Alt. Az.
22 Sep 5.1 16:21:18 10° SSW 16:25:30 27° W 16:29:44 10° NW visible
23 Sep 3.2 15:43:44 10° S 15:48:47 76° WSW 15:53:51 10° NNW visible
24 Sep 6.1 16:48:50 10° SW 16:51:00 13° W 16:53:12 10° WNW visible
25 Sep 4.6 16:09:38 10° SSW 16:14:16 36° W 16:18:53 10° NW visible
26 Sep 2.9 15:32:30 10° SSE 15:37:34 80° ENE 15:42:36 10° N visible
27 Sep 5.8 16:36:26 10° SW 16:39:45 18° W 16:43:05 10° WNW visible
28 Sep 4.0 15:58:08 10° S 16:03:01 49° W 16:07:53 10° NNW visible
29 Sep 3.0 15:21:22 10° SSE 15:26:20 58° ENE 15:31:18 10° N visible
30 Sep 5.3 16:24:29 10° SSW 16:28:30 24° W 16:32:31 10° NW visible
01 Oct 3.4 15:46:45 10° S 15:51:46 68° WSW 15:56:48 10° NNW visible
